Location: Chatham
(39.6760°N, 89.7040°W)
Time: 13:25:11
(UTC-05:00)

Envisat - Visible Passes

Search period start: 25 April 2018 00:00
Search period end: 05 May 2018 00:00
Orbit: 764 x 766 km, 98.2° (Epoch: 25 April)

Date Brightness Start Highest point End Pass type
(mag) Time Alt. Az. Time Alt. Az. Time Alt. Az.
25 Apr 5.6 21:38:58 10° SW 21:42:08 17° W 21:45:19 10° NW visible
26 Apr 4.4 21:00:28 10° SSW 21:05:08 37° W 21:09:50 10° NNW visible
27 Apr 3.1 20:23:15 10° SSE 20:28:19 85° WSW 20:33:26 10° NNW visible
28 Apr 5.3 21:27:05 10° SW 21:30:54 21° W 21:34:42 10° NW visible
29 Apr 4.0 20:49:04 10° S 20:53:56 47° W 20:58:51 10° NNW visible
30 Apr 5.8 21:55:08 10° WSW 21:56:45 11° W 21:58:22 10° WNW visible
01 May 5.0 21:15:25 10° SSW 21:19:39 27° W 21:23:56 10° NW visible
02 May 3.6 20:37:46 10° S 20:42:46 61° W 20:47:48 10° NNW visible
03 May 5.6 21:42:37 10° SW 21:45:28 15° W 21:48:19 10° WNW visible
04 May 4.6 21:03:52 10° SSW 21:08:26 34° W 21:13:02 10° NNW visible
